Tracking 27188 objects as of 1-Apr-2023
HD Live streaming from Space Station
objects crossing your sky now

STARLINK-2534

Track STARLINK-2534 now!
10-day predictions
STARLINK-2534 is classified as:


NORAD ID: 48311
Int'l Code: 2021-036AM
Perigee: 553.7 km
Apogee: 555.1 km
Inclination: 53.1 °
Period: 95.6 minutes
Semi major axis: 6925 km
RCS: Unknown
Launch date: April 29, 2021
Source: United States (US)
Launch site: AIR FORCE EASTERN TEST RANGE (AFETR)
Your satellite tracking list
Your tracking list is empty




NASA's NSSDC Master Catalog

Two Line Element Set (TLE):
1 48311U 21036AM  23090.59967749  .00025784  00000-0  17445-2 0  9998
2 48311  53.0516 233.3947 0001001  92.7230 267.3874 15.06379325106921
Source of the keplerian elements: AFSPC